Weather History for KVUO - November, 2011

Change the Weather History Date:

Friday, November 4, 2011

  Actual Average Record
Temperature  
Mean Temperature 44 °F 49 °F  
Max Temperature 49 °F 57 °F 70 °F (1975)
Min Temperature 38 °F 42 °F 23 °F (1935)
Degree Days  
Heating Degree Days 21    
Month to date heating degree days 87  
Since 1 July heating degree days 432  
Cooling Degree Days 0    
Month to date cooling degree days 0  
Year to date cooling degree days 339  
Moisture  
Dew Point 38 °F    
Average Humidity 81    
Maximum Humidity 100    
Minimum Humidity 61    
Precipitation  
Precipitation 0.00 in 0.17 in 1.22 in (1934)
Month to date precipitation 0.62 0.65  
Year to date precipitation 28.57 27.11  
Snow  
Snow 0.00 in - - ()
Month to date snowfall 0.0  
Snow Depth 0.00 in    
Sea Level Pressure  
Sea Level Pressure 29.94 in    
Wind  
Wind Speed 1 mph (SE)    
Max Wind Speed 6 mph    
Max Gust Speed 10 mph    
Visibility 9 miles    
Events Rain    
T = Trace of Precipitation, MM = Missing Value Source: NWS Daily Summary

Daily Weather History Graph

Daily Weather History Graph

Search for Another Location

Airport or City:

Trip Planner

Search our weather history database for the weather conditions in past years. The results will help you decide how hot, cold, wet, or windy it might be!

Date:

Astronomy

Nov. 04, 2011 Rise Set
Actual Time 7:54 AM PDT 5:53 PM PDT
Civil Twilight 7:23 AM PDT 6:24 PM PDT
Nautical Twilight 6:47 AM PDT 6:59 PM PDT
Astronomical Twilight 6:13 AM PDT 7:34 PM PDT
Moon 3:01 PM PDT (11/4) 1:55 AM PDT (11/4)
Length of Visible Light 11h 01m
Length of Day
9h 59m
Waxing Gibbous, 70% of the Moon is Illuminated
Nov 4
Waxing Gibbous
Nov 10
Full
Nov 18
Last Quarter
Nov 24
New
Dec 2
First Quarter

Hourly Weather History & Observations

Time (PDT) Temp. Windchill Dew Point Humidity Pressure Visibility Wind Dir Wind Speed Gust Speed Precip Events Conditions
12:04 AM 41.0 °F 39.0 °F 39.2 °F 93% 29.87 in 7.0 mi NW 3.5 mph - N/A   Mostly Cloudy
12:34 AM 39.2 °F - 39.2 °F 100% 29.88 in 2.5 mi Calm Calm - N/A   Overcast
12:53 AM 39.9 °F - 39.0 °F 97% 29.88 in 1.5 mi Calm Calm - N/A   Overcast
1:06 AM 39.2 °F - 39.2 °F 100% 29.89 in 3.0 mi Calm Calm - N/A   Overcast
1:53 AM 39.0 °F - 37.9 °F 96% 29.89 in 2.5 mi Calm Calm - N/A   Overcast
2:36 AM 39.2 °F - 37.4 °F 93% 29.90 in 4.0 mi Calm Calm - N/A   Overcast
2:53 AM 39.0 °F - 37.0 °F 93% 29.91 in 7.0 mi Calm Calm - N/A   Overcast
3:53 AM 39.0 °F - 37.0 °F 93% 29.91 in 10.0 mi Calm Calm - N/A   Overcast
4:51 AM 39.2 °F - 37.4 °F 93% 29.91 in 10.0 mi Calm Calm - N/A   Overcast
4:53 AM 39.9 °F - 37.0 °F 89% 29.91 in 10.0 mi Calm Calm - N/A   Overcast
5:24 AM 39.2 °F 37.0 °F 37.4 °F 93% 29.91 in 10.0 mi Variable 3.5 mph - N/A   Overcast
5:53 AM 41.0 °F - 37.9 °F 89% 29.92 in 10.0 mi Calm Calm - N/A   Overcast
6:03 AM 41.0 °F - 37.4 °F 87% 29.92 in 10.0 mi Calm Calm - N/A   Overcast
6:34 AM 41.0 °F - 37.4 °F 87% 29.93 in 10.0 mi Calm Calm - N/A   Overcast
6:45 AM 41.0 °F - 37.4 °F 87% 29.94 in 10.0 mi Calm Calm - N/A   Overcast
6:53 AM 41.0 °F - 37.9 °F 89% 29.94 in 10.0 mi Calm Calm - N/A   Overcast
7:49 AM 41.0 °F - 37.4 °F 87% 29.95 in 10.0 mi Calm Calm - N/A   Overcast
7:53 AM 41.0 °F - 37.9 °F 89% 29.95 in 10.0 mi Calm Calm - N/A   Overcast
8:25 AM 42.8 °F - 37.4 °F 81% 29.96 in 10.0 mi Calm Calm - N/A   Overcast
8:43 AM 42.8 °F - 37.4 °F 81% 29.96 in 10.0 mi Calm Calm - N/A   Overcast
8:53 AM 42.1 °F - 37.0 °F 82% 29.96 in 10.0 mi Calm Calm - N/A   Overcast
9:53 AM 43.0 °F - 37.0 °F 80% 29.97 in 10.0 mi Calm Calm - N/A   Overcast
10:53 AM 44.1 °F - 36.0 °F 73% 29.98 in 10.0 mi Calm Calm - N/A   Overcast
11:44 AM 44.6 °F - 37.4 °F 76% 29.99 in 10.0 mi Calm Calm - N/A   Overcast
11:53 AM 45.0 °F 43.5 °F 37.0 °F 74% 29.99 in 10.0 mi NW 3.5 mph - N/A   Overcast
12:06 PM 44.6 °F - 37.4 °F 76% 29.99 in 10.0 mi Calm Calm - N/A   Overcast
12:21 PM 44.6 °F 43.1 °F 37.4 °F 76% 29.99 in 10.0 mi NNE 3.5 mph - N/A   Overcast
12:53 PM 46.0 °F - 37.0 °F 71% 29.99 in 10.0 mi Calm Calm - N/A   Overcast
1:28 PM 46.4 °F - 37.4 °F 71% 29.98 in 10.0 mi Calm Calm - N/A   Overcast
1:53 PM 46.9 °F - 37.0 °F 68% 29.97 in 10.0 mi Calm Calm - N/A   Partly Cloudy
2:53 PM 48.0 °F - 35.1 °F 61% 29.97 in 10.0 mi Calm Calm - N/A   Overcast
3:53 PM 48.0 °F - 37.0 °F 66% 29.96 in 10.0 mi WSW 6.9 mph - N/A   Overcast
4:14 PM 48.2 °F - 37.4 °F 66% 29.96 in 10.0 mi SSW 5.8 mph - N/A   Mostly Cloudy
4:53 PM 48.0 °F - 37.0 °F 66% 29.96 in 10.0 mi Calm Calm - N/A   Overcast
5:53 PM 46.9 °F - 37.9 °F 71% 29.96 in 10.0 mi Calm Calm - N/A   Overcast
6:53 PM 46.9 °F - 37.9 °F 71% 29.96 in 10.0 mi Calm Calm - N/A   Overcast
7:53 PM 43.0 °F - 39.0 °F 86% 29.96 in 6.0 mi Calm Calm - 0.04 in Rain Light Rain
8:01 PM 44.6 °F 43.1 °F 39.2 °F 81% 29.96 in 10.0 mi East 3.5 mph - 0.00 in   Overcast
8:53 PM 43.0 °F - 39.0 °F 86% 29.94 in 10.0 mi Calm Calm - 0.00 in   Mostly Cloudy
9:50 PM 42.8 °F - 39.2 °F 87% 29.93 in 10.0 mi Calm Calm - N/A   Mostly Cloudy
9:53 PM 42.1 °F - 39.9 °F 92% 29.94 in 10.0 mi Calm Calm - N/A   Mostly Cloudy
10:53 PM 44.1 °F 41.5 °F 39.9 °F 85% 29.92 in 10.0 mi SE 4.6 mph - N/A   Mostly Cloudy
11:53 PM 42.1 °F 40.2 °F 39.0 °F 89% 29.91 in 9.0 mi SE 3.5 mph - N/A   Clear